This is the latest recevied weather packets stored in our database for station/object N3MFL. If no packets are shown the sender has not sent any weather packets the latest 10 day(s).
| Time | Temp. | Humidity | Pressure | Rain* | Wind** | Luminosity | Snow |
|---|---|---|---|---|---|---|---|
| 1777666227 | 17.78° C | 33% | 1009.7 hPa | 0 mm | - | 480 W/m² | - |
| 1777665924 | 17.78° C | 37% | 1009.6 hPa | 0 mm | - | 490 W/m² | - |
| 1777665621 | 18.33° C | 31% | 1009.6 hPa | 0 mm | - | 493 W/m² | - |
| 1777665318 | 17.78° C | 31% | 1009.6 hPa | 0 mm | - | 513 W/m² | - |
| 1777665014 | 17.22° C | 31% | 1009.5 hPa | 0 mm | - | 138 W/m² | - |
| 1777664710 | 17.78° C | 31% | 1009.9 hPa | 0 mm | - | 234 W/m² | - |
| 1777664406 | 17.78° C | 33% | 1009.9 hPa | 0 mm | - | 545 W/m² | - |
| 1777664104 | 17.78° C | 34% | 1009.9 hPa | 0 mm | - | 550 W/m² | - |
| 1777663801 | 17.22° C | 34% | 1009.9 hPa | 0 mm | - | 559 W/m² | - |
| 1777663498 | 17.78° C | 33% | 1009.9 hPa | 0 mm | - | 569 W/m² | - |
| 1777663195 | 16.67° C | 37% | 1010 hPa | 0 mm | - | 603 W/m² | - |
| 1777662893 | 16.67° C | 35% | 1010 hPa | 0 mm | - | 625 W/m² | - |
| 1777662590 | 16.67° C | 35% | 1010 hPa | 0 mm | - | 585 W/m² | - |
| 1777662286 | 16.67° C | 37% | 1009.9 hPa | 0 mm | - | 375 W/m² | - |
| 1777661981 | 17.22° C | 38% | 1009.9 hPa | 0 mm | - | 636 W/m² | - |
| 1777661677 | 17.22° C | 37% | 1010.1 hPa | 0 mm | - | 539 W/m² | - |
| 1777661373 | 16.11° C | 37% | 1010.1 hPa | 0 mm | - | 661 W/m² | - |
| 1777661070 | 16.67° C | 40% | 1010.3 hPa | 0 mm | - | 130 W/m² | - |
| 1777660765 | 17.22° C | 37% | 1010.3 hPa | 0 mm | - | 192 W/m² | - |
| 1777660462 | 17.22° C | 35% | 1010.2 hPa | 0 mm | - | 432 W/m² | - |
| 1777660158 | 17.22° C | 39% | 1010.1 hPa | 0 mm | - | 294 W/m² | - |
| 1777659855 | 17.22° C | 36% | 1010.2 hPa | 0 mm | - | 261 W/m² | - |
| 1777659552 | 17.22° C | 38% | 1010.3 hPa | 0 mm | - | 291 W/m² | - |
| 1777659249 | 16.11° C | 36% | 1010.2 hPa | 0 mm | - | 432 W/m² | - |
| 1777658946 | 16.11° C | 40% | 1010.4 hPa | 0 mm | - | 538 W/m² | - |
* Rain latest hour (hover to see other rain measurements)
** Current wind speed in m/s (hover to see current wind gust speed)